sat.trackr.live / text

‹ back to catalog

STARLINK-34214

NORAD 64190 · 2025-113W

PAYLOAD ACTIVE UNKNOWN

§ Identity

Operator
Country
US
Launch date
2025-05-28
Launch site
AFETR
Launch vehicle
Mass (kg)
RCS (m²)

Purposes: comms

External: N2YO · Heavens-Above · Gunter

§ Orbital elements

Epoch: 2026-09-20T06:28:58.260864Z

Period
93.85 min
Inclination
53.1598°
Eccentricity
0.0001719
Mean motion
15.34402115 rev/d
Perigee alt
461.5 km
Apogee alt
463.9 km
Semi-major
6,840.8 km
B*
5.0465e-4
RAAN
266.7976°
Arg perigee
78.8385°
Mean anomaly
281.2811°
Rev number
7,486

§ Raw data

STARLINK-342141 64190U 25113W   26263.27011876  .00016713  00000+0  50465-3 0  99932 64190  53.1598 266.7976 0001719  78.8385 281.2811 15.34402115 74867

JSON: /api/v1/satellites/64190 · /tle

For live sub-satellite position, see the globe view (requires WebGL).

§ Visibility from observer

Set your observer location to see the next 7 days of passes ≥ 10°. The values pass through the URL so the page stays shareable.

No JS? Fill the form by hand. The geolocation button needs JavaScript.